STARLINK-35847

Last updated on Wed Dec 31 2025 00:02:06 GMT+0000 (Coordinated Universal Time)

1 66621U 25271E 25364.56120281 .00087961 00000+0 21846-2 0 9996 2 66621 53.1594 102.3834 0001117 44.9057 315.2038 15.39607870 6969
UTC large
Height (km)
Speed (km/s)
/
Latitude / Longitude
Inclination (degrees)
Orbital Period (minutes)
Azimuth
Elevation
Range (km)
Doppler Factor

Next 0 passes for location: London (51.5072 / 0.1276)

Sorry there are no passes over London.